Terminal Aerodrome Forecast
Issued by NWS Blacksburg, VA

Current Version | Previous Version | Graphics & Text | Print | Product List | Glossary On
Versions: 1 2 3 4 5 6 7 8 9 10 11 12 13 14 15 16 17 18 19 20 21 22 23 24 25 26 27 28 29 30 31 32 33 34 35 36 37 38 39 40 41 42 43 44
000
FTUS41 KRNK 302322
TAFBLF
TAF
KBLF 302322Z 0100/0124 30008KT P6SM VCSH BKN013 OVC024
     FM010100 30005KT 5SM -SHRA BR OVC020
     FM010600 30004KT 5SM -SHRA BR OVC008
     FM011300 32007KT P6SM VCSH OVC015
     FM011800 32008KT P6SM OVC015=

USA.gov is the U.S. government's official web portal to all federal, state and local government web resources and services.